• In Russia
  • List of Countries
  • For 7 days
  • Water Temperature
  • Satellite Maps
  • Weather Map
  • Weather Widgets
  • user-avatar
    Login

    Hourly Weather El Quseir

    Today, 22 May, Tuesday

    Time Temperature Precipitation Wind Pressure Humidity
    00:00 +36°C° 0 mm 3 mps 756 mmHg 17%
    01:00 +35°C° 0 mm 4 mps 756 mmHg 17%
    02:00 +35°C° 0 mm 4 mps 756 mmHg 17%
    03:00 +35°C° 0 mm 4 mps 756 mmHg 18%
    04:00 +34°C° 0 mm 4 mps 756 mmHg 18%
    05:00 +34°C° 0 mm 4 mps 757 mmHg 18%
    06:00 +36°C° 0 mm 4 mps 757 mmHg 16%
    07:00 +39°C° 0 mm 5 mps 758 mmHg 14%
    08:00 +41°C° 0 mm 5 mps 758 mmHg 12%
    09:00 +42°C° 0 mm 5 mps 758 mmHg 12%
    10:00 +42°C° 0 mm 5 mps 758 mmHg 12%
    11:00 +43°C° 0 mm 4 mps 758 mmHg 11%
    12:00 +43°C° 0 mm 4 mps 758 mmHg 12%
    13:00 +43°C° 0 mm 3 mps 758 mmHg 12%
    14:00 +44°C° 0 mm 3 mps 757 mmHg 12%
    15:00 +42°C° 0 mm 2 mps 757 mmHg 12%
    16:00 +42°C° 0 mm 2 mps 757 mmHg 12%
    17:00 +42°C° 0 mm 2 mps 757 mmHg 12%
    18:00 +41°C° 0 mm 2 mps 757 mmHg 13%
    19:00 +40°C° 0 mm 2 mps 757 mmHg 13%
    20:00 +38°C° 0 mm 3 mps 757 mmHg 13%
    21:00 +38°C° 0 mm 3 mps 757 mmHg 12%
    22:00 +38°C° 0 mm 3 mps 757 mmHg 12%
    23:00 +38°C° 0 mm 4 mps 757 mmHg 11%

    Tomorrow, 23 May, Wednesday

    Time Temperature Precipitation Wind Pressure Humidity
    00:00 +38°C° 0 mm 4 mps 757 mmHg 12%
    01:00 +37°C° 0 mm 4 mps 757 mmHg 12%
    02:00 +37°C° 0 mm 4 mps 757 mmHg 13%
    03:00 +37°C° 0 mm 4 mps 757 mmHg 13%
    04:00 +36°C° 0 mm 4 mps 757 mmHg 14%
    05:00 +35°C° 0 mm 3 mps 757 mmHg 14%
    06:00 +38°C° 0 mm 4 mps 757 mmHg 13%
    07:00 +41°C° 0 mm 4 mps 757 mmHg 12%
    08:00 +43°C° 0 mm 4 mps 757 mmHg 11%
    09:00 +45°C° 0 mm 5 mps 757 mmHg 11%
    10:00 +46°C° 0 mm 5 mps 758 mmHg 11%
    11:00 +47°C° 0 mm 6 mps 758 mmHg 10%
    12:00 +47°C° 0 mm 6 mps 757 mmHg 11%
    13:00 +47°C° 0 mm 6 mps 757 mmHg 11%
    14:00 +47°C° 0 mm 6 mps 756 mmHg 11%
    15:00 +46°C° 0 mm 6 mps 756 mmHg 12%
    16:00 +46°C° 0 mm 5 mps 756 mmHg 13%
    17:00 +45°C° 0 mm 5 mps 755 mmHg 14%
    18:00 +43°C° 0 mm 5 mps 756 mmHg 16%
    19:00 +41°C° 0 mm 5 mps 756 mmHg 18%
    20:00 +40°C° 0 mm 4 mps 756 mmHg 19%
    21:00 +40°C° 0 mm 5 mps 756 mmHg 20%
    22:00 +39°C° 0 mm 6 mps 757 mmHg 20%
    23:00 +39°C° 0 mm 6 mps 757 mmHg 20%

    Day after tomorrow, 24 May, Thursday

    Time Temperature Precipitation Wind Pressure Humidity
    00:00 +38°C° 0 mm 6 mps 756 mmHg 20%
    01:00 +38°C° 0 mm 6 mps 756 mmHg 20%
    02:00 +36°C° 0 mm 5 mps 756 mmHg 20%
    03:00 +36°C° 0 mm 5 mps 756 mmHg 22%
    04:00 +35°C° 0 mm 5 mps 756 mmHg 23%
    05:00 +34°C° 0 mm 5 mps 756 mmHg 25%
    06:00 +36°C° 0 mm 6 mps 756 mmHg 22%
    07:00 +38°C° 0 mm 6 mps 756 mmHg 19%
    08:00 +40°C° 0 mm 6 mps 756 mmHg 17%
    09:00 +41°C° 0 mm 6 mps 756 mmHg 15%
    10:00 +42°C° 0 mm 6 mps 756 mmHg 14%
    11:00 +44°C° 0 mm 6 mps 756 mmHg 13%
    12:00 +45°C° 0 mm 6 mps 755 mmHg 13%
    13:00 +45°C° 0 mm 6 mps 755 mmHg 13%
    14:00 +45°C° 0 mm 6 mps 754 mmHg 13%
    15:00 +45°C° 0 mm 7 mps 754 mmHg 14%
    16:00 +44°C° 0 mm 7 mps 754 mmHg 15%
    17:00 +44°C° 0 mm 8 mps 753 mmHg 15%
    18:00 +43°C° 0 mm 7 mps 753 mmHg 17%
    19:00 +40°C° 0 mm 6 mps 754 mmHg 18%
    20:00 +39°C° 0 mm 6 mps 754 mmHg 19%
    21:00 +39°C° 0 mm 6 mps 754 mmHg 20%
    22:00 +38°C° 0 mm 6 mps 754 mmHg 20%
    23:00 +38°C° 0 mm 6 mps 754 mmHg 21%

    25 May, Friday

    Time Temperature Precipitation Wind Pressure Humidity
    00:00 +36°C° 0 mm 6 mps 754 mmHg 21%
    01:00 +35°C° 0 mm 5 mps 754 mmHg 21%
    02:00 +35°C° 0 mm 5 mps 753 mmHg 22%
    03:00 +34°C° 0 mm 5 mps 753 mmHg 21%
    04:00 +34°C° 0 mm 5 mps 754 mmHg 21%
    05:00 +34°C° 0 mm 5 mps 754 mmHg 21%
    06:00 +35°C° 0 mm 5 mps 754 mmHg 19%
    07:00 +37°C° 0 mm 5 mps 754 mmHg 17%
    08:00 +39°C° 0 mm 5 mps 755 mmHg 15%
    09:00 +40°C° 0 mm 5 mps 755 mmHg 14%
    10:00 +41°C° 0 mm 5 mps 754 mmHg 13%
    11:00 +42°C° 0 mm 4 mps 754 mmHg 13%
    12:00 +42°C° 0 mm 5 mps 754 mmHg 13%
    13:00 +42°C° 0 mm 5 mps 753 mmHg 14%
    14:00 +43°C° 0 mm 5 mps 753 mmHg 14%
    15:00 +42°C° 0 mm 5 mps 753 mmHg 15%
    16:00 +42°C° 0 mm 6 mps 753 mmHg 15%
    17:00 +41°C° 0 mm 6 mps 753 mmHg 16%
    18:00 +40°C° 0 mm 5 mps 753 mmHg 18%
    19:00 +39°C° 0 mm 5 mps 753 mmHg 21%
    20:00 +37°C° 0 mm 5 mps 754 mmHg 23%
    21:00 +37°C° 0 mm 4 mps 753 mmHg 23%
    22:00 +37°C° 0 mm 4 mps 753 mmHg 22%
    23:00 +36°C° 0 mm 4 mps 753 mmHg 21%

    26 May, Saturday

    Time Temperature Precipitation Wind Pressure Humidity
    00:00 +36°C° 0.1 mm 4 mps 753 mmHg 23%
    01:00 +35°C° 0.1 mm 4 mps 753 mmHg 24%
    02:00 +35°C° 0.1 mm 4 mps 752 mmHg 25%
    03:00 +35°C° 0.1 mm 4 mps 752 mmHg 24%
    04:00 +35°C° 0.1 mm 4 mps 752 mmHg 24%
    05:00 +35°C° 0.1 mm 4 mps 753 mmHg 23%
    06:00 +35°C° 0.1 mm 5 mps 753 mmHg 21%
    07:00 +36°C° 0.1 mm 5 mps 753 mmHg 20%
    08:00 +38°C° 0.1 mm 6 mps 753 mmHg 19%
    09:00 +39°C° 0 mm 6 mps 753 mmHg 18%
    10:00 +40°C° 0 mm 6 mps 753 mmHg 18%
    11:00 +41°C° 0 mm 6 mps 753 mmHg 17%
    12:00 +41°C° 0 mm 6 mps 753 mmHg 16%
    13:00 +42°C° 0 mm 6 mps 753 mmHg 16%
    14:00 +42°C° 0 mm 5 mps 752 mmHg 16%
    15:00 +42°C° 0 mm 5 mps 752 mmHg 16%
    16:00 +41°C° 0 mm 4 mps 752 mmHg 17%
    17:00 +41°C° 0 mm 4 mps 752 mmHg 18%
    18:00 +40°C° 0 mm 4 mps 752 mmHg 19%
    19:00 +38°C° 0 mm 4 mps 752 mmHg 21%
    20:00 +37°C° 0 mm 4 mps 752 mmHg 23%
    21:00 +37°C° 0 mm 4 mps 752 mmHg 23%
    22:00 +37°C° 0 mm 4 mps 752 mmHg 23%
    23:00 +36°C° 0 mm 4 mps 752 mmHg 23%

    27 May, Sunday

    Time Temperature Precipitation Wind Pressure Humidity
    00:00 +36°C° 0.1 mm 4 mps 752 mmHg 25%
    01:00 +35°C° 0.1 mm 5 mps 752 mmHg 27%
    02:00 +34°C° 0.1 mm 5 mps 751 mmHg 28%
    03:00 +34°C° 0.2 mm 6 mps 752 mmHg 29%
    04:00 +34°C° 0.2 mm 6 mps 752 mmHg 30%
    05:00 +34°C° 0.2 mm 7 mps 752 mmHg 31%
    06:00 +34°C° 0.2 mm 7 mps 753 mmHg 31%
    07:00 +35°C° 0.2 mm 7 mps 753 mmHg 30%
    08:00 +36°C° 0.2 mm 7 mps 754 mmHg 30%
    09:00 +38°C° 0.1 mm 7 mps 753 mmHg 29%
    10:00 +38°C° 0.1 mm 6 mps 753 mmHg 28%
    11:00 +39°C° 0.1 mm 6 mps 753 mmHg 28%
    12:00 +40°C° 0.2 mm 6 mps 752 mmHg 25%
    13:00 +41°C° 0.2 mm 6 mps 752 mmHg 23%
    14:00 +41°C° 0.2 mm 6 mps 751 mmHg 21%
    15:00 +41°C° 0.2 mm 6 mps 751 mmHg 21%
    16:00 +41°C° 0.2 mm 6 mps 751 mmHg 21%
    17:00 +41°C° 0.2 mm 6 mps 750 mmHg 21%
    18:00 +40°C° 0 mm 6 mps 751 mmHg 24%
    19:00 +40°C° 0 mm 5 mps 751 mmHg 26%
    20:00 +39°C° 0 mm 5 mps 752 mmHg 29%
    21:00 +37°C° 0 mm 5 mps 752 mmHg 31%
    22:00 +36°C° 0 mm 5 mps 752 mmHg 34%
    23:00 +36°C° 0 mm 5 mps 752 mmHg 36%
    Show more